TimeEST,TemperatureF,Dew PointF,Humidity,Sea Level PressureIn,VisibilityMPH,Wind Direction,Wind SpeedMPH,Gust SpeedMPH,PrecipitationIn,Events,Conditions,WindDirDegrees,DateUTC
12:15 AM,47.3,45.0,92,30.13,10.0,Calm,Calm,-,N/A,,Clear,0,2013-12-31 05:15:00
12:35 AM,46.9,44.6,92,30.13,10.0,Calm,Calm,-,N/A,,Clear,0,2013-12-31 05:35:00
12:55 AM,46.9,44.6,92,30.13,10.0,Calm,Calm,-,N/A,,Clear,0,2013-12-31 05:55:00
1:15 AM,46.6,44.6,93,30.11,10.0,Calm,Calm,-,N/A,,Clear,0,2013-12-31 06:15:00
1:35 AM,46.6,45.0,94,30.11,10.0,Calm,Calm,-,N/A,,Clear,0,2013-12-31 06:35:00
1:55 AM,47.1,45.1,93,30.12,10.0,Calm,Calm,-,N/A,,Clear,0,2013-12-31 06:55:00
2:15 AM,47.7,45.3,92,30.13,10.0,Calm,Calm,-,N/A,,Clear,0,2013-12-31 07:15:00
2:35 AM,47.7,45.1,91,30.13,10.0,Calm,Calm,-,N/A,,Clear,0,2013-12-31 07:35:00
2:55 AM,47.3,44.8,91,30.13,10.0,Calm,Calm,-,N/A,,Clear,0,2013-12-31 07:55:00
3:15 AM,46.8,44.6,92,30.13,10.0,Calm,Calm,-,N/A,,Clear,0,2013-12-31 08:15:00
3:35 AM,47.1,44.8,92,30.12,10.0,Calm,Calm,-,N/A,,Scattered Clouds,0,2013-12-31 08:35:00
3:55 AM,46.8,44.8,93,30.11,10.0,Calm,Calm,-,N/A,,Scattered Clouds,0,2013-12-31 08:55:00
4:15 AM,47.5,44.8,90,30.12,10.0,Calm,Calm,-,N/A,,Scattered Clouds,0,2013-12-31 09:15:00
4:35 AM,47.7,44.6,89,30.11,10.0,SW,4.6,-,N/A,,Scattered Clouds,220,2013-12-31 09:35:00
4:55 AM,47.8,44.6,89,30.11,10.0,Calm,Calm,-,N/A,,Clear,0,2013-12-31 09:55:00
5:15 AM,47.8,44.2,87,30.12,10.0,WSW,3.5,-,N/A,,Clear,250,2013-12-31 10:15:00
5:35 AM,47.8,43.9,86,30.14,10.0,WSW,3.5,-,N/A,,Clear,240,2013-12-31 10:35:00
5:55 AM,48.4,43.7,84,30.16,10.0,West,3.5,-,N/A,,Scattered Clouds,270,2013-12-31 10:55:00
6:15 AM,48.2,43.7,84,30.16,10.0,Calm,Calm,-,N/A,,Mostly Cloudy,0,2013-12-31 11:15:00
6:35 AM,47.8,43.9,86,30.18,10.0,West,3.5,-,N/A,,Scattered Clouds,260,2013-12-31 11:35:00
6:55 AM,47.8,43.9,86,30.19,10.0,WSW,4.6,-,N/A,,Mostly Cloudy,250,2013-12-31 11:55:00
7:15 AM,47.8,44.1,87,30.20,10.0,Calm,Calm,-,N/A,,Overcast,0,2013-12-31 12:15:00
7:35 AM,48.2,43.7,84,30.21,10.0,NW,4.6,-,N/A,,Overcast,310,2013-12-31 12:35:00
7:55 AM,46.4,41.4,83,30.23,2.5,North,4.6,-,N/A,,Haze,10,2013-12-31 12:55:00
8:15 AM,45.5,39.4,79,30.23,10.0,North,5.8,-,N/A,,Overcast,360,2013-12-31 13:15:00
8:35 AM,45.3,38.1,76,30.24,10.0,North,4.6,-,N/A,,Mostly Cloudy,360,2013-12-31 13:35:00
8:55 AM,46.0,37.4,72,30.26,10.0,North,5.8,-,N/A,,Scattered Clouds,10,2013-12-31 13:55:00
9:15 AM,45.7,36.7,71,30.27,10.0,Calm,Calm,-,N/A,,Mostly Cloudy,0,2013-12-31 14:15:00
9:35 AM,46.4,35.8,67,30.27,10.0,NE,3.5,-,N/A,,Overcast,40,2013-12-31 14:35:00
9:55 AM,47.3,36.1,65,30.28,10.0,NE,3.5,-,N/A,,Scattered Clouds,50,2013-12-31 14:55:00
10:15 AM,48.4,35.6,61,30.29,10.0,North,3.5,-,N/A,,Clear,360,2013-12-31 15:15:00
10:35 AM,49.3,36.3,61,30.29,10.0,Calm,Calm,-,N/A,,Clear,0,2013-12-31 15:35:00
10:55 AM,49.3,35.4,59,30.29,10.0,Calm,Calm,-,N/A,,Clear,0,2013-12-31 15:55:00
11:15 AM,50.5,35.2,56,30.29,10.0,NNW,4.6,-,N/A,,Clear,340,2013-12-31 16:15:00
11:35 AM,50.9,36.0,57,30.29,10.0,Calm,Calm,-,N/A,,Clear,0,2013-12-31 16:35:00
11:55 AM,51.6,36.5,56,30.28,10.0,North,6.9,-,N/A,,Clear,10,2013-12-31 16:55:00
12:15 PM,52.9,34.2,49,30.27,10.0,North,4.6,-,N/A,,Clear,350,2013-12-31 17:15:00
12:35 PM,52.9,33.1,47,30.26,10.0,North,3.5,-,N/A,,Clear,350,2013-12-31 17:35:00
12:55 PM,52.3,32.0,46,30.26,10.0,Calm,Calm,-,N/A,,Clear,0,2013-12-31 17:55:00
1:15 PM,52.5,32.0,46,30.26,10.0,NNW,3.5,-,N/A,,Clear,330,2013-12-31 18:15:00
1:35 PM,52.5,31.5,45,30.26,10.0,NW,3.5,-,N/A,,Clear,320,2013-12-31 18:35:00
1:55 PM,53.2,31.5,43,30.25,10.0,West,4.6,-,N/A,,Clear,260,2013-12-31 18:55:00
2:15 PM,53.8,31.6,43,30.26,10.0,NW,3.5,-,N/A,,Clear,320,2013-12-31 19:15:00
2:35 PM,54.0,30.9,41,30.26,10.0,Calm,Calm,-,N/A,,Clear,0,2013-12-31 19:35:00
2:55 PM,53.8,29.8,40,30.26,10.0,Calm,Calm,-,N/A,,Clear,0,2013-12-31 19:55:00
3:15 PM,53.6,29.5,40,30.26,10.0,WNW,3.5,-,N/A,,Clear,290,2013-12-31 20:15:00
3:35 PM,53.1,30.7,43,30.27,10.0,Calm,Calm,-,N/A,,Clear,0,2013-12-31 20:35:00
3:55 PM,52.7,31.3,44,30.27,10.0,Calm,Calm,-,N/A,,Clear,0,2013-12-31 20:55:00
4:15 PM,52.5,30.6,43,30.27,10.0,Calm,Calm,-,N/A,,Clear,0,2013-12-31 21:15:00
4:35 PM,52.0,31.8,46,30.29,10.0,Calm,Calm,-,N/A,,Clear,0,2013-12-31 21:35:00
4:55 PM,50.0,33.1,52,30.29,10.0,Calm,Calm,-,N/A,,Clear,0,2013-12-31 21:55:00
5:15 PM,48.6,35.2,60,30.29,10.0,Calm,Calm,-,N/A,,Clear,0,2013-12-31 22:15:00
5:35 PM,47.5,35.6,63,30.29,10.0,Calm,Calm,-,N/A,,Clear,0,2013-12-31 22:35:00
5:55 PM,46.4,37.4,71,30.29,10.0,Calm,Calm,-,N/A,,Clear,0,2013-12-31 22:55:00
6:15 PM,45.0,36.5,72,30.31,10.0,Calm,Calm,-,N/A,,Clear,0,2013-12-31 23:15:00
6:35 PM,44.6,38.7,80,30.32,10.0,Calm,Calm,-,N/A,,Clear,0,2013-12-31 23:35:00
6:55 PM,43.7,37.9,80,30.34,10.0,Calm,Calm,-,N/A,,Clear,0,2013-12-31 23:55:00
7:15 PM,43.0,38.1,83,30.34,10.0,Calm,Calm,-,N/A,,Clear,0,2014-01-01 00:15:00
7:35 PM,41.7,37.8,86,30.35,10.0,Calm,Calm,-,N/A,,Clear,0,2014-01-01 00:35:00
7:55 PM,41.9,37.8,85,30.36,10.0,Calm,Calm,-,N/A,,Clear,0,2014-01-01 00:55:00
8:15 PM,41.9,37.4,84,30.36,10.0,Calm,Calm,-,N/A,,Clear,0,2014-01-01 01:15:00
8:35 PM,41.2,37.0,85,30.36,10.0,Calm,Calm,-,N/A,,Clear,0,2014-01-01 01:35:00
8:55 PM,41.0,36.9,85,30.36,10.0,Calm,Calm,-,N/A,,Clear,0,2014-01-01 01:55:00
9:15 PM,39.7,37.0,90,30.37,10.0,Calm,Calm,-,N/A,,Clear,0,2014-01-01 02:15:00
9:35 PM,40.1,37.4,90,30.36,10.0,Calm,Calm,-,N/A,,Clear,0,2014-01-01 02:35:00
9:55 PM,40.3,37.2,89,30.37,10.0,Calm,Calm,-,N/A,,Clear,0,2014-01-01 02:55:00
10:15 PM,39.0,36.3,90,30.37,10.0,Calm,Calm,-,N/A,,Clear,0,2014-01-01 03:15:00
10:35 PM,39.0,36.9,92,30.37,10.0,Calm,Calm,-,N/A,,Clear,0,2014-01-01 03:35:00
10:55 PM,39.2,36.1,89,30.37,10.0,Calm,Calm,-,N/A,,Clear,0,2014-01-01 03:55:00
11:15 PM,38.3,35.6,90,30.37,10.0,Calm,Calm,-,N/A,,Clear,0,2014-01-01 04:15:00
11:35 PM,38.3,36.0,91,30.37,10.0,Calm,Calm,-,N/A,,Clear,0,2014-01-01 04:35:00
11:55 PM,37.0,35.1,93,30.37,10.0,Calm,Calm,-,N/A,,Clear,0,2014-01-01 04:55:00